VBV072 ENCN-ENKB

Flight info

Callsign VBV072
Flight time 1h 9m
Altitude 36000
Route TIPSO DCT BOBGA DCT ULVIR DCT VEPUL
Aircraft A20N/M-SDE2E3FGHIRWXY/LB1

Departure

Time 2026-04-29 11:38
Airport Kristiansand Airport (ENCN)

Arrival

Time 2026-04-29 12:47
Airport Kristiansund Airport, Kvernberget (ENKB)
Time Latitude Longitude Altitude Speed Heading
2026-04-29 11:14 58.20250 8.07554 48 ft 0 kts 301°
2026-04-29 11:21 58.20249 8.07554 48 ft 0 kts 301°
2026-04-29 11:21 58.20245 8.07567 48 ft 2 kts 301°
2026-04-29 11:22 58.20238 8.07590 47 ft 2 kts 301°
2026-04-29 11:22 58.20229 8.07615 47 ft 3 kts 330°
2026-04-29 11:22 58.20212 8.07621 46 ft 2 kts 14°
2026-04-29 11:22 58.20203 8.07615 46 ft 1 kts 39°
2026-04-29 11:23 58.20200 8.07609 46 ft 0 kts 33°
2026-04-29 11:23 58.20199 8.07610 46 ft 0 kts 32°
2026-04-29 11:31 58.20207 8.07619 46 ft 8 kts 30°
2026-04-29 11:31 58.20260 8.07678 48 ft 10 kts 32°
2026-04-29 11:32 58.20310 8.07756 50 ft 10 kts 49°
2026-04-29 11:32 58.20350 8.07852 51 ft 10 kts 52°
2026-04-29 11:32 58.20395 8.07963 51 ft 12 kts 52°
2026-04-29 11:32 58.20445 8.08091 52 ft 13 kts 54°
2026-04-29 11:33 58.20495 8.08218 54 ft 13 kts 52°
2026-04-29 11:33 58.20540 8.08350 56 ft 13 kts 70°
2026-04-29 11:33 58.20554 8.08509 56 ft 14 kts 83°
2026-04-29 11:33 58.20571 8.08695 54 ft 16 kts 64°
2026-04-29 11:34 58.20645 8.08827 57 ft 15 kts 36°
2026-04-29 11:34 58.20727 8.08937 57 ft 17 kts 35°
2026-04-29 11:34 58.20815 8.09055 57 ft 17 kts 35°
2026-04-29 11:34 58.20905 8.09178 56 ft 18 kts 35°
2026-04-29 11:35 58.21012 8.09324 52 ft 21 kts 36°
2026-04-29 11:35 58.21128 8.09481 51 ft 22 kts 35°
2026-04-29 11:35 58.21146 8.09503 51 ft 1 kts 21°
2026-04-29 11:35 58.21147 8.09486 51 ft 3 kts 236°
2026-04-29 11:36 58.21126 8.09464 52 ft 4 kts 207°
2026-04-29 11:36 58.21108 8.09444 52 ft 0 kts 213°
2026-04-29 11:37 58.21096 8.09429 52 ft 15 kts 214°
2026-04-29 11:37 58.20812 8.09059 57 ft 89 kts 217°
2026-04-29 11:38 58.20195 8.08241 45 ft 148 kts 215°
2026-04-29 11:38 58.19368 8.07202 717 ft 144 kts 212°
2026-04-29 11:38 58.18654 8.06402 1498 ft 132 kts 211°
2026-04-29 11:38 58.17798 8.05683 1780 ft 155 kts 198°
2026-04-29 11:39 58.16749 8.05155 2198 ft 168 kts 194°
2026-04-29 11:39 58.15706 8.04729 2530 ft 184 kts 191°
2026-04-29 11:39 58.14376 8.04354 2733 ft 211 kts 189°
2026-04-29 11:39 58.12846 8.03843 2925 ft 238 kts 192°
2026-04-29 11:40 58.11174 8.03056 3103 ft 264 kts 197°
2026-04-29 11:40 58.09369 8.01623 3189 ft 290 kts 205°
2026-04-29 11:40 58.07481 8.00670 4041 ft 284 kts 178°
2026-04-29 11:40 58.05677 8.01689 5021 ft 273 kts 144°
2026-04-29 11:41 58.04485 8.04333 5809 ft 269 kts 111°
2026-04-29 11:41 58.04270 8.07749 6451 ft 268 kts 78°
2026-04-29 11:41 58.04813 8.11112 7181 ft 268 kts 65°
2026-04-29 11:41 58.05671 8.14162 7907 ft 268 kts 53°
2026-04-29 11:42 58.06897 8.16752 8671 ft 266 kts 37°
2026-04-29 11:42 58.08497 8.18480 9388 ft 266 kts 19°
2026-04-29 11:42 58.10265 8.19447 10056 ft 266 kts 15°
2026-04-29 11:42 58.12005 8.20377 10706 ft 268 kts 16°
2026-04-29 11:43 58.13839 8.21309 11073 ft 280 kts 14°
2026-04-29 11:43 58.15686 8.22061 11319 ft 292 kts 12°
2026-04-29 11:43 58.17569 8.22763 11573 ft 302 kts 12°
2026-04-29 11:43 58.19422 8.23447 11987 ft 305 kts 12°
2026-04-29 11:44 58.21316 8.24148 12482 ft 305 kts 12°
2026-04-29 11:44 58.23230 8.24864 12956 ft 305 kts 12°
2026-04-29 11:44 58.25167 8.25592 13390 ft 307 kts 12°
2026-04-29 11:44 58.27068 8.26309 13818 ft 309 kts 12°
2026-04-29 11:45 58.28983 8.27036 14222 ft 311 kts 12°
2026-04-29 11:45 58.30883 8.27758 14605 ft 312 kts 12°
2026-04-29 11:45 58.32781 8.28480 15001 ft 313 kts 12°
2026-04-29 11:45 58.34733 8.29223 15398 ft 314 kts 12°
2026-04-29 11:46 58.36645 8.29954 15767 ft 315 kts 12°
2026-04-29 11:46 58.38594 8.30698 16139 ft 316 kts 12°
2026-04-29 11:46 58.40546 8.31446 16484 ft 318 kts 12°
2026-04-29 11:46 58.42509 8.32197 16803 ft 319 kts 12°
2026-04-29 11:47 58.44513 8.32966 17131 ft 321 kts 12°
2026-04-29 11:47 58.46484 8.33720 17455 ft 322 kts 12°
2026-04-29 11:47 58.48465 8.34482 17783 ft 323 kts 12°
2026-04-29 11:47 58.50480 8.35256 18075 ft 324 kts 12°
2026-04-29 11:48 58.52649 8.36094 18381 ft 326 kts 12°
2026-04-29 11:48 58.54662 8.36872 18662 ft 327 kts 12°
2026-04-29 11:48 58.56656 8.37641 19185 ft 321 kts 12°
2026-04-29 11:48 58.58578 8.38383 19880 ft 310 kts 12°
2026-04-29 11:49 58.60458 8.39109 20609 ft 299 kts 12°
2026-04-29 11:49 58.62268 8.39809 21350 ft 288 kts 12°
2026-04-29 11:49 58.64018 8.40488 22064 ft 284 kts 12°
2026-04-29 11:49 58.65878 8.41213 22454 ft 298 kts 12°
2026-04-29 11:50 58.67771 8.41950 22739 ft 312 kts 12°
2026-04-29 11:50 58.69860 8.42764 23021 ft 327 kts 12°
2026-04-29 11:50 58.71886 8.43548 23266 ft 340 kts 11°
2026-04-29 11:50 58.74103 8.43952 23499 ft 355 kts
2026-04-29 11:51 58.76350 8.43612 23724 ft 369 kts 352°
2026-04-29 11:51 58.78616 8.42500 24020 ft 381 kts 345°
2026-04-29 11:51 58.80872 8.40980 24548 ft 384 kts 343°
2026-04-29 11:51 58.83160 8.39365 25100 ft 386 kts 342°
2026-04-29 11:52 58.85444 8.37748 25566 ft 389 kts 343°
2026-04-29 11:52 58.87750 8.36127 26044 ft 392 kts 343°
2026-04-29 11:52 58.90031 8.34530 26514 ft 394 kts 343°
2026-04-29 11:52 58.92368 8.33025 26936 ft 395 kts 347°
2026-04-29 11:53 58.94754 8.31935 27346 ft 396 kts 352°
2026-04-29 11:53 58.97246 8.31266 27766 ft 397 kts 356°
2026-04-29 11:53 58.99773 8.31030 28178 ft 398 kts
2026-04-29 11:53 59.02336 8.30972 28585 ft 400 kts
2026-04-29 11:54 59.04954 8.30946 28980 ft 402 kts
2026-04-29 11:54 59.07604 8.30925 29343 ft 404 kts
2026-04-29 11:54 59.10134 8.30902 29729 ft 406 kts
2026-04-29 11:54 59.12688 8.30875 30115 ft 407 kts
2026-04-29 11:55 59.15247 8.30844 30462 ft 409 kts
2026-04-29 11:55 59.17791 8.30815 30822 ft 410 kts
2026-04-29 11:55 59.20256 8.30782 31268 ft 409 kts
2026-04-29 11:55 59.22732 8.30748 31736 ft 408 kts
2026-04-29 11:56 59.25210 8.30712 32190 ft 406 kts
2026-04-29 11:56 59.27691 8.30677 32608 ft 405 kts
2026-04-29 11:56 59.30048 8.30644 32991 ft 404 kts
2026-04-29 11:56 59.32409 8.30611 33357 ft 403 kts
2026-04-29 11:57 59.34739 8.30579 33718 ft 402 kts
2026-04-29 11:57 59.37103 8.30543 34067 ft 401 kts 360°
2026-04-29 11:57 59.39463 8.30509 34403 ft 401 kts
2026-04-29 11:57 59.41792 8.30478 34722 ft 400 kts 360°
2026-04-29 11:58 59.44162 8.30445 34986 ft 400 kts 360°
2026-04-29 11:58 59.46517 8.30411 35171 ft 402 kts 360°
2026-04-29 11:58 59.48868 8.30379 35352 ft 403 kts 360°
2026-04-29 11:58 59.51217 8.30343 35535 ft 403 kts 360°
2026-04-29 11:59 59.53570 8.30310 35718 ft 404 kts 360°
2026-04-29 11:59 59.55974 8.30275 35887 ft 405 kts 360°
2026-04-29 11:59 59.58383 8.30240 36049 ft 406 kts 359°
2026-04-29 11:59 59.60787 8.30206 36207 ft 406 kts 360°
2026-04-29 12:00 59.63264 8.30170 36347 ft 407 kts 359°
2026-04-29 12:00 59.65688 8.30136 36366 ft 408 kts 359°
2026-04-29 12:00 59.70622 8.30068 36374 ft 408 kts 359°
2026-04-29 12:01 59.75506 8.29997 36375 ft 408 kts 359°
2026-04-29 12:01 59.80437 8.29926 36376 ft 409 kts 359°
2026-04-29 12:02 59.85348 8.29855 36371 ft 409 kts 359°
2026-04-29 12:02 59.90299 8.29784 36367 ft 408 kts 359°
2026-04-29 12:03 59.95410 8.29710 36363 ft 408 kts 359°
2026-04-29 12:03 60.00319 8.29639 36369 ft 408 kts 359°
2026-04-29 12:04 60.05183 8.29567 36381 ft 409 kts 359°
2026-04-29 12:04 60.10028 8.29520 36385 ft 408 kts 359°
2026-04-29 12:05 60.14891 8.29598 36383 ft 408 kts 359°
2026-04-29 12:05 60.19713 8.29689 36383 ft 408 kts 359°
2026-04-29 12:06 60.24535 8.29774 36378 ft 408 kts 359°
2026-04-29 12:06 60.29383 8.29855 36385 ft 408 kts 360°
2026-04-29 12:07 60.34146 8.29934 36391 ft 407 kts 360°
2026-04-29 12:07 60.38926 8.30013 36385 ft 407 kts 359°
2026-04-29 12:08 60.43758 8.30094 36381 ft 408 kts 359°
2026-04-29 12:08 60.48636 8.30176 36370 ft 408 kts 359°
2026-04-29 12:09 60.53494 8.30257 36369 ft 407 kts 359°
2026-04-29 12:09 60.58306 8.30338 36368 ft 407 kts 359°
2026-04-29 12:10 60.63156 8.30420 36366 ft 407 kts 359°
2026-04-29 12:10 60.68034 8.30501 36372 ft 407 kts 359°
2026-04-29 12:11 60.72792 8.30582 36371 ft 407 kts 359°
2026-04-29 12:11 60.77493 8.30663 36378 ft 407 kts 359°
2026-04-29 12:12 60.82191 8.30738 36376 ft 407 kts 359°
2026-04-29 12:12 60.86878 8.30817 36381 ft 406 kts 359°
2026-04-29 12:13 60.91674 8.30897 36378 ft 406 kts 359°
2026-04-29 12:13 60.96449 8.30981 36384 ft 406 kts 359°
2026-04-29 12:14 61.01378 8.31067 36387 ft 406 kts 359°
2026-04-29 12:14 61.06325 8.31150 36375 ft 406 kts 359°
2026-04-29 12:15 61.11517 8.31236 36385 ft 406 kts 359°
2026-04-29 12:15 61.17028 8.31333 36387 ft 406 kts 359°
2026-04-29 12:16 61.22448 8.31427 36381 ft 406 kts 359°
2026-04-29 12:16 61.27440 8.31516 36383 ft 406 kts 359°
2026-04-29 12:17 61.32367 8.31603 36374 ft 406 kts 359°
2026-04-29 12:17 61.37231 8.31688 36370 ft 405 kts 359°
2026-04-29 12:18 61.42015 8.31771 36369 ft 406 kts 358°
2026-04-29 12:18 61.46808 8.31854 36372 ft 406 kts 358°
2026-04-29 12:19 61.51584 8.31939 36378 ft 405 kts 358°
2026-04-29 12:19 61.56427 8.32026 36377 ft 405 kts 358°
2026-04-29 12:20 61.61306 8.32111 36335 ft 406 kts 358°
2026-04-29 12:20 61.63693 8.32155 36127 ft 405 kts 358°
2026-04-29 12:20 61.66110 8.32199 35917 ft 404 kts 358°
2026-04-29 12:21 61.68516 8.32301 35674 ft 402 kts 359°
2026-04-29 12:21 61.70855 8.32456 35311 ft 401 kts 359°
2026-04-29 12:21 61.73202 8.32624 34815 ft 400 kts 360°
2026-04-29 12:21 61.75637 8.32799 34170 ft 400 kts 360°
2026-04-29 12:22 61.78270 8.32986 33476 ft 401 kts 359°
2026-04-29 12:22 61.80978 8.33178 32752 ft 401 kts 359°
2026-04-29 12:22 61.83688 8.33365 32021 ft 402 kts 359°
2026-04-29 12:22 61.86355 8.33548 31320 ft 402 kts 359°
2026-04-29 12:23 61.88657 8.33707 30671 ft 403 kts 359°
2026-04-29 12:23 61.90980 8.33865 30010 ft 405 kts 359°
2026-04-29 12:23 61.93325 8.34026 29329 ft 406 kts 359°
2026-04-29 12:23 61.95736 8.34191 28884 ft 406 kts 359°
2026-04-29 12:24 61.98092 8.34355 28468 ft 405 kts 359°
2026-04-29 12:24 62.00461 8.34518 28037 ft 402 kts 359°
2026-04-29 12:24 62.02744 8.34677 27618 ft 399 kts 359°
2026-04-29 12:24 62.04972 8.34832 27194 ft 396 kts 359°
2026-04-29 12:25 62.07223 8.34988 26767 ft 393 kts 359°
2026-04-29 12:25 62.09453 8.35140 26342 ft 390 kts 359°
2026-04-29 12:25 62.13877 8.35446 25469 ft 385 kts 359°
2026-04-29 12:26 62.16118 8.35603 25046 ft 381 kts 358°
2026-04-29 12:26 62.18260 8.35432 24624 ft 377 kts 351°
2026-04-29 12:26 62.20322 8.34623 24218 ft 372 kts 344°
2026-04-29 12:26 62.22324 8.33207 23793 ft 369 kts 337°
2026-04-29 12:27 62.24204 8.31295 23389 ft 366 kts 332°
2026-04-29 12:27 62.26079 8.29163 22961 ft 364 kts 332°
2026-04-29 12:27 62.27925 8.27020 22526 ft 362 kts 332°
2026-04-29 12:27 62.29778 8.24864 22089 ft 360 kts 332°
2026-04-29 12:28 62.31594 8.22757 21650 ft 359 kts 332°
2026-04-29 12:28 62.33455 8.20601 21190 ft 357 kts 332°
2026-04-29 12:28 62.35332 8.18430 20728 ft 355 kts 332°
2026-04-29 12:28 62.37162 8.16315 20276 ft 354 kts 332°
2026-04-29 12:29 62.38966 8.14227 19840 ft 352 kts 332°
2026-04-29 12:29 62.40782 8.12124 19396 ft 350 kts 332°
2026-04-29 12:29 62.42598 8.10018 18959 ft 348 kts 332°
2026-04-29 12:29 62.44397 8.07931 18532 ft 345 kts 332°
2026-04-29 12:30 62.46193 8.05844 18102 ft 343 kts 332°
2026-04-29 12:30 62.47966 8.03783 17673 ft 341 kts 331°
2026-04-29 12:30 62.49792 8.01656 17222 ft 339 kts 331°
2026-04-29 12:30 62.51635 7.99506 16797 ft 336 kts 332°
2026-04-29 12:31 62.53474 7.97660 16363 ft 335 kts 338°
2026-04-29 12:31 62.55360 7.96296 15926 ft 335 kts 343°
2026-04-29 12:31 62.57313 7.95384 15493 ft 333 kts 348°
2026-04-29 12:31 62.59261 7.94731 15051 ft 332 kts 349°
2026-04-29 12:32 62.61200 7.94135 14617 ft 329 kts 349°
2026-04-29 12:32 62.63099 7.93559 14194 ft 327 kts 349°
2026-04-29 12:32 62.65013 7.92970 13774 ft 324 kts 349°
2026-04-29 12:32 62.66987 7.92353 13344 ft 322 kts 348°
2026-04-29 12:33 62.69041 7.91704 12904 ft 319 kts 348°
2026-04-29 12:33 62.70956 7.91102 12468 ft 318 kts 349°
2026-04-29 12:33 62.72853 7.90977 12020 ft 322 kts
2026-04-29 12:33 62.74682 7.91975 11598 ft 327 kts 17°
2026-04-29 12:34 62.76333 7.93948 11201 ft 331 kts 28°
2026-04-29 12:34 62.77914 7.96357 10967 ft 323 kts 30°
2026-04-29 12:34 62.79383 7.98667 10856 ft 312 kts 30°
2026-04-29 12:34 62.80856 8.00989 10720 ft 302 kts 30°
2026-04-29 12:35 62.82261 8.03188 10592 ft 291 kts 30°
2026-04-29 12:35 62.83643 8.05341 10486 ft 282 kts 29°
2026-04-29 12:35 62.84967 8.07392 10423 ft 279 kts 29°
2026-04-29 12:35 62.86367 8.09544 10421 ft 282 kts 28°
2026-04-29 12:36 62.87792 8.11737 10404 ft 283 kts 28°
2026-04-29 12:36 62.89163 8.13850 10404 ft 282 kts 28°
2026-04-29 12:36 62.90479 8.15883 10411 ft 282 kts 28°
2026-04-29 12:36 62.91836 8.17980 10411 ft 282 kts 28°
2026-04-29 12:37 62.93154 8.20022 10415 ft 283 kts 28°
2026-04-29 12:37 62.94541 8.22171 10404 ft 283 kts 28°
2026-04-29 12:37 62.95994 8.24424 10394 ft 283 kts 28°
2026-04-29 12:37 62.97343 8.26521 10400 ft 282 kts 28°
2026-04-29 12:38 62.98699 8.28630 10393 ft 283 kts 28°
2026-04-29 12:38 63.00023 8.30690 10396 ft 283 kts 28°
2026-04-29 12:38 63.01376 8.32711 10406 ft 281 kts 25°
2026-04-29 12:38 63.02790 8.34423 10409 ft 277 kts 19°
2026-04-29 12:39 63.04311 8.35912 10415 ft 276 kts 16°
2026-04-29 12:39 63.05784 8.37257 10411 ft 276 kts 15°
2026-04-29 12:39 63.06658 8.38046 10410 ft 276 kts 15°
2026-04-29 12:39 63.08170 8.39415 10404 ft 264 kts 14°
2026-04-29 12:40 63.09810 8.40175 10158 ft 243 kts 348°
2026-04-29 12:40 63.11253 8.38938 9661 ft 230 kts 321°
2026-04-29 12:40 63.12484 8.36831 9144 ft 226 kts 321°
2026-04-29 12:40 63.13737 8.34898 8737 ft 219 kts 322°
2026-04-29 12:41 63.14945 8.33102 8334 ft 211 kts 323°
2026-04-29 12:41 63.16043 8.31148 7912 ft 202 kts 302°
2026-04-29 12:41 63.16386 8.28329 7503 ft 198 kts 265°
2026-04-29 12:41 63.16048 8.25545 7349 ft 180 kts 258°
2026-04-29 12:42 63.15744 8.22973 6928 ft 168 kts 261°
2026-04-29 12:42 63.15485 8.20551 6439 ft 160 kts 261°
2026-04-29 12:42 63.15240 8.18222 5972 ft 154 kts 260°
2026-04-29 12:42 63.15004 8.15990 5530 ft 148 kts 259°
2026-04-29 12:43 63.14772 8.13845 5115 ft 142 kts 259°
2026-04-29 12:43 63.14547 8.11775 4727 ft 137 kts 258°
2026-04-29 12:43 63.14331 8.09798 4383 ft 130 kts 258°
2026-04-29 12:43 63.14122 8.07897 4014 ft 126 kts 257°
2026-04-29 12:44 63.13923 8.06081 3657 ft 122 kts 256°
2026-04-29 12:44 63.13725 8.04297 3301 ft 119 kts 256°
2026-04-29 12:44 63.13533 8.02564 3003 ft 113 kts 256°
2026-04-29 12:44 63.13347 8.00836 2715 ft 119 kts 257°
2026-04-29 12:45 63.13158 7.99019 2181 ft 130 kts 259°
2026-04-29 12:45 63.13019 7.96988 1630 ft 137 kts 258°
2026-04-29 12:45 63.12861 7.94998 1292 ft 129 kts 261°
2026-04-29 12:45 63.12716 7.93154 1047 ft 117 kts 257°
2026-04-29 12:46 63.12508 7.91493 803 ft 111 kts 253°
2026-04-29 12:46 63.12273 7.89880 600 ft 109 kts 254°
2026-04-29 12:46 63.12044 7.88283 572 ft 110 kts 252°
2026-04-29 12:46 63.11836 7.86857 350 ft 110 kts 250°
2026-04-29 12:47 63.11650 7.85504 256 ft 108 kts 252°
2026-04-29 12:47 63.11446 7.84172 170 ft 95 kts 254°
2026-04-29 12:47 63.11304 7.83156 207 ft 56 kts 246°
2026-04-29 12:47 63.11251 7.82867 196 ft 0 kts 250°
2026-04-29 12:48 63.11250 7.82865 196 ft 0 kts 250°
2026-04-29 12:48 63.11245 7.82831 195 ft 3 kts 253°
2026-04-29 12:48 63.11244 7.82808 195 ft 0 kts 280°
2026-04-29 12:48 63.11245 7.82806 195 ft 0 kts 283°
2026-04-29 12:49 63.11279 7.82719 199 ft 5 kts 331°
2026-04-29 12:49 63.11288 7.82712 200 ft 2 kts 346°
2026-04-29 12:49 63.11317 7.82725 203 ft 2 kts 23°
2026-04-29 12:49 63.11339 7.82753 205 ft 9 kts 34°
2026-04-29 12:50 63.11375 7.82856 209 ft 7 kts 68°
2026-04-29 12:50 63.11385 7.82917 211 ft 1 kts 78°
2026-04-29 12:50 63.11378 7.82925 210 ft 3 kts 212°
2026-04-29 12:50 63.11363 7.82847 207 ft 7 kts 243°
2026-04-29 12:51 63.11335 7.82758 204 ft 8 kts 230°
2026-04-29 12:51 63.11325 7.82662 203 ft 5 kts 301°
2026-04-29 12:51 63.11332 7.82644 204 ft 0 kts 303°
2026-04-29 12:51 63.11340 7.82636 205 ft 6 kts 336°
2026-04-29 12:52 63.11347 7.82629 205 ft 0 kts 334°